Time,TemperatureF,DewpointF,PressureIn,WindDirection,WindDirectionDegrees,WindSpeedMPH,WindSpeedGustMPH,Humidity,HourlyPrecipIn,Conditions,Clouds,dailyrainin,SolarRadiationWatts/m^2,SoftwareType,DateUTC
2013-08-31 02:52:00,73.0,51.0,-100.00,NE,54,7.0,9.0,46,0.00,,,-99.99,0.000000,,2013-08-31 08:52:00,
2013-08-31 03:50:00,72.0,51.0,-100.00,NE,37,10.0,13.0,47,0.00,,,-99.99,0.000000,,2013-08-31 09:50:00,
2013-08-31 04:23:00,72.0,51.0,-100.00,NE,37,10.0,13.0,47,0.00,,,-99.99,0.000000,,2013-08-31 10:23:00,
2013-08-31 04:33:00,72.0,51.0,-100.00,NE,37,10.0,13.0,47,0.00,,,-99.99,0.000000,,2013-08-31 10:33:00,
2013-08-31 04:43:00,72.0,51.0,-100.00,NE,37,10.0,13.0,47,0.00,,,-99.99,0.000000,,2013-08-31 10:43:00,
2013-08-31 08:50:00,74.0,51.0,-100.00,NE,48,6.0,9.0,44,0.00,,,-99.99,151.000000,,2013-08-31 14:50:00,
2013-08-31 09:22:00,74.0,51.0,-100.00,NE,48,6.0,9.0,44,0.00,,,-99.99,151.000000,,2013-08-31 15:22:00,
2013-08-31 09:34:00,74.0,51.0,-100.00,NE,48,6.0,9.0,44,0.00,,,-99.99,151.000000,,2013-08-31 15:34:00,
2013-08-31 09:44:00,74.0,51.0,-100.00,NE,48,6.0,9.0,44,0.00,,,-99.99,151.000000,,2013-08-31 15:44:00,
2013-08-31 11:53:00,77.0,52.0,-100.00,NE,48,9.0,13.0,43,0.00,,,-99.99,392.000000,,2013-08-31 17:53:00,
2013-08-31 13:50:00,88.0,55.0,-100.00,SSE,154,9.0,12.0,33,0.00,,,-99.99,1237.000000,,2013-08-31 19:50:00,
2013-08-31 14:22:00,88.0,55.0,-100.00,SSE,154,9.0,12.0,33,0.00,,,-99.99,1237.000000,,2013-08-31 20:22:00,
2013-08-31 14:32:00,88.0,55.0,-100.00,SSE,154,9.0,12.0,33,0.00,,,-99.99,1237.000000,,2013-08-31 20:32:00,
2013-08-31 14:42:00,88.0,55.0,-100.00,SSE,154,9.0,12.0,33,0.00,,,-99.99,1237.000000,,2013-08-31 20:42:00,
2013-08-31 18:21:00,80.0,52.0,-100.00,West,262,8.0,14.0,38,0.00,,,-99.99,288.000000,,2013-09-01 00:21:00,
2013-08-31 18:50:00,77.0,54.0,-100.00,NE,48,10.0,13.0,45,0.00,,,-99.99,249.000000,,2013-09-01 00:50:00,
2013-08-31 18:52:00,75.0,56.0,-100.00,NE,50,11.0,15.0,52,0.00,,,-99.99,329.000000,,2013-09-01 00:52:00,
2013-08-31 19:21:00,77.0,54.0,-100.00,NE,48,10.0,13.0,45,0.00,,,-99.99,249.000000,,2013-09-01 01:21:00,
2013-08-31 19:32:00,77.0,54.0,-100.00,NE,48,10.0,13.0,45,0.00,,,-99.99,249.000000,,2013-09-01 01:32:00,
2013-08-31 19:42:00,77.0,54.0,-100.00,NE,48,10.0,13.0,45,0.00,,,-99.99,249.000000,,2013-09-01 01:42:00,
2013-08-31 20:53:00,72.0,52.0,-100.00,NE,41,2.0,4.0,50,0.00,,,-99.99,0.000000,,2013-09-01 02:53:00,
2013-08-31 21:54:00,70.0,58.0,-100.00,SSW,192,2.0,4.0,66,0.00,,,-99.99,0.000000,,2013-09-01 03:54:00,
2013-08-31 22:03:00,-999.0,-99.9,-100.00,ENE,63,6.0,9.0,-999,-99.99,,,-99.99,,,2013-09-01 04:03:00,
2013-08-31 22:54:00,72.0,53.0,-100.00,NE,45,8.0,10.0,51,0.00,,,-99.99,0.000000,,2013-09-01 04:54:00,
2013-08-31 23:50:00,72.0,54.0,-100.00,NE,49,10.0,14.0,53,0.00,,,-99.99,0.000000,,2013-09-01 05:50:00,
2013-08-31 23:52:00,72.0,54.0,-100.00,NE,36,11.0,15.0,52,0.00,,,-99.99,0.000000,,2013-09-01 05:52:00,